Hauptseite
METAR-TAF:

METAR-TAF

Flughäfen :

Prague, Tschechien

Breite: 50-12-59N, Länge: 014-23-42E, Höhe: 280 m

Beobachtung

Neuester Wetterbericht von vor 1 Stunde und 1 Minuten, um 07:00 UTC
Wind 3 kt aus Ost, variierte zwischen Nord/Nordost und Süd
Temperatur 16°C
Luftfeuchtigkeit 82%
Luftdruck 1028 hPa
Sichtweite 10 km oder mehr
keine Wolken unter 1500 m und keine Kumulonimbus oder Gewitterwolken

METAR: LKVO 220700Z 10003KT 030V180 CAVOK 16/13 Q1028

Zeit: 10:01 (08:01 UTC)


TAF: fehlend

Wetterbeobachtungen und Prognosen von mehr als 4000 Flughäfen (METAR und TAF Bericht).

Die verfügbaren Stationen werden durch gelbe und rote Markierungen auf der Karte dargestellt.

Führen Sie die Maus auf sie, um den Namen der Station zu sehen.

Darauf klicken, um die Beobachtung von Wetterbeobachtungen und Prognosen zu sehen.

Um die Karte zu ändern : klicken Sie auf den grünen Tasten mit einem schwarzen Kreuz Zum Vergrößern, auf den grünen Button mit einem Gedankenstrich zu verkleinern, oder auf die grünen Pfeile für benachbarte Karten.


METAR-TAF: